Weather Roundup
Issued by NWS Corpus Christi, TX

Home | Current Version | Previous Version | Text Only | Print | Product List | Glossary On
Versions: 1 2 3 4 5 6 7 8 9 10 11 12 13 14 15 16 17 18 19 20 21 22 23 24 25 26 27 28 29 30 31 32 33 34 35 36 37 38 39 40 41 42 43 44 45 46 47 48 49 50
000
ASUS44 KCRP 251910
HRRCRP

SOUTH TEXAS REGIONAL WEATHER ROUNDUP
NATIONAL WEATHER SERVICE CORPUS CHRISTI TX
200 PM CDT SAT MAR 25 2017


TXZ229>244-252000-
...CORPUS CHRISTI AREA OBSERVATIONS...

CITY           SKY/WX    TMP DP  RH WIND       PRES   REMARKS
CORPUS CHRISTI PTSUNNY   80  70  71 N6        30.00F
NAS CORPUS CHR MOSUNNY   79  69  71 N7        29.99F
ROCKPORT       SUNNY     81  67  62 NW10      30.01F
KINGSVILLE NAS PTSUNNY   82  71  69 NW8       30.00F
ALICE          CLOUDY    77  67  71 N9        30.01F
ORANGE GROVE   CLOUDY    77  66  68 N9        30.03F
FALFURRIAS     MOSUNNY   81  70  68 N7        30.00F
$$

...VICTORIA AREA OBSERVATIONS...

CITY           SKY/WX    TMP DP  RH WIND       PRES   REMARKS
VICTORIA       SUNNY     79  56  45 VRB5      30.02F
BEEVILLE       FAIR      77  62  58 CALM      30.03F
PLEASANTON     SUNNY     79  47  32 W5        30.04F
SAN ANTONIO    SUNNY     80  44  27 CALM      30.03F
$$

...LAREDO AREA OBSERVATIONS...

CITY           SKY/WX    TMP DP  RH WIND       PRES   REMARKS
LAREDO         SUNNY     84  55  36 N10       30.02F
COTULLA        SUNNY     83  43  24 VRB5      30.03F
DEL RIO        SUNNY     78  38  23 W6        30.05F
MCALLEN        SUNNY     90  69  50 E5        29.98F HX  94
HEBBRONVILLE   CLOUDY    74  65  74 CALM      30.04F
$$

...OTHER TEXAS OBSERVATIONS...

CITY           SKY/WX    TMP DP  RH WIND       PRES   REMARKS
BROWNSVILLE    SUNNY     88  67  49 S10       29.98F HX  91
HOUSTON        MOSUNNY   76  51  41 SW5       30.00F
COL. STATION   SUNNY     71  50  47 W8        30.02F
AUSTIN         SUNNY     76  45  33 CALM      30.02F
WACO           SUNNY     70  49  47 W8        30.02F
FORT WORTH     MOSUNNY   68  46  45 W14       29.99F
WICHITA FALLS  SUNNY     63  43  48 N8        30.00F
LUBBOCK        MOSUNNY   69  30  23 W10G18    30.04F
EL PASO        MOSUNNY   71  21  15 S9        30.07F
$$

...MARINE OBSERVATIONS...

STATION/POSITION TIME  SKY/WX   TEMP    WIND        PRES    VSBY  WAVE   SWELL
                                AIR SEA DIR/SP/G                  HT/PER HT/PER
                 (UTC)          (F)     (DEG/KT/KT) (MB)    (MI)  (FT/S) (FT/S)
PORT ARANSAS     1900            72 70  150/ 10/ 11 1016.0F
BUOY 90 E PORT A 1750            73 72  230/  6/  8 1017.4          6/ 8   7/ 8
BUOY 45 SE BAFFI 1750            73     190/  8/ 10 1016.0          6/ 9   7/ 9
BUOY 200 E PT IS 1850            76 77  160/ 14/ 16 1016.5F         6/ 7   5/ 7
BUOY 15 E GALVES 1750            72 71  190/ 10/ 12 1017.1          5/ 8   5/ 8
$$




USA.gov is the U.S. government's official web portal to all federal, state and local government web resources and services.